Regional Weather Roundup
Issued by NWS Upton, NY

Current Version | Previous Version | Text Only | Print | Product List | Glossary On
Versions: 1 2 3 4 5 6 7 8 9 10 11 12 13 14 15 16 17 18 19 20 21 22 23 24 25 26 27 28 29 30 31 32 33 34 35 36 37 38 39 40 41 42 43 44 45 46 47 48 49 50
000
ASUS41 KOKX 281907
RWROKX

REGIONAL WEATHER ROUNDUP
NATIONAL WEATHER SERVICE NEW YORK NY
300 PM EDT SAT MAR 28 2015

NOTE: "FAIR" INDICATES FEW OR NO CLOUDS BELOW 12,000 FEET WITH NO
SIGNIFICANT WEATHER AND/OR OBSTRUCTIONS TO VISIBILITY.

NYZ071-072-176-178-NJZ106-104-282000-
NEW YORK CITY METRO AREA


CITY           SKY/WX    TMP DP  RH WIND       PRES   REMARKS
CENTRAL PARK   CLOUDY    38  21  50 VRB6      29.86S WCI  33
LAGUARDIA APRT PTSUNNY   36  25  64 N14G21    29.84S WCI  27
KENNEDY INTL   PTSUNNY   38  26  62 N15       29.84S WCI  29
NEWARK/LIBERTY PTSUNNY   42  17  36 N12G23    29.84S
BRNX BOT. GARD   N/A    N/A N/A N/A N6        29.85R
TETERBORO      CLOUDY    39  19  44 N14G22    29.83F WCI  31
$$

NYZ177-179-078>081-282000-
LONG ISLAND NEW YORK

CITY           SKY/WX    TMP DP  RH WIND       PRES   REMARKS
FARMINGDALE    LGT SNOW  32  26  78 N14G29    29.83S WCI  22
ISLIP          LGT SNOW  32  28  85 NW16      29.79S FOG     WCI  21
SHIRLEY        LGT SNOW  32  28  85 NW16G26   29.81R VSB 1   WCI  21
WESTHAMPTON    LGT SNOW  33  30  88 NW14G24   29.79S FOG     WCI  23
MONTAUK POINT    N/A     36  34  92 NW9       29.76R WCI  29
$$

NYZ052-065-067-282000-
HUDSON VALLEY

CITY           SKY/WX    TMP DP  RH WIND       PRES   REMARKS
WHITE PLAINS   CLOUDY    33  25  72 NW18      29.81F HAZE    WCI  22
NEWBURGH       LGT SNOW  32  25  74 NW16      29.85F WCI  21
MONTGOMERY     CLOUDY    34  23  64 N7        29.85S WCI  28
POUGHKEEPSIE   LGT SNOW  33  22  63 N15G25    29.87S WCI  23
ALBANY         FLURRIES  29  21  72 NW12      29.92S WCI  19
$$

NJZ001-105-106-008-010-013-015-019>022-104-282000-
NEW JERSEY

CITY           SKY/WX    TMP DP  RH WIND       PRES   REMARKS
NEWARK/LIBERTY PTSUNNY   42  17  36 N12G23    29.84S
TETERBORO      CLOUDY    39  19  44 N14G22    29.83F WCI  31
CALDWELL       CLOUDY    40  17  39 N8        29.85S WCI  34
MORRISTOWN     PTSUNNY   41  18  38 N14G23    29.86R
SOMERVILLE     PTSUNNY   40  13  33 N12G24    29.85R WCI  33
SUSSEX         PTSUNNY   36  16  44 NW10G22   29.86S WCI  28
ANDOVER          N/A     35  14  42 N9G20     29.86S WCI  28
TRENTON        CLOUDY    39  14  36 N13G22    29.85F WCI  31
MILLVILLE      CLOUDY    38  22  52 W17       29.89S WCI  28
ATLANTIC CITY  CLOUDY    40  18  41 NW16      29.86R WCI  31
WRIGHTSTOWN    CLOUDY    41  18  39 NW12G23   29.84R
TOMS RIVER     CLOUDY    41  18  38 W16G22    29.84S
BELMAR         CLOUDY    43  18  36 NW20      29.82S
$$

PAZ047>061-062-071-282000-
EASTERN PENNSYLVANIA

CITY           SKY/WX    TMP DP  RH WIND       PRES   REMARKS
PHILADELPHIA   CLOUDY    39  14  36 N23       29.91R WCI  28
ALLENTOWN      MOSUNNY   37  14  38 NW18G26   29.90S WCI  27
SCRANTON       CLOUDY    27  10  49 NW15G23   29.93R WCI  15
$$

CTZ002-004>006-009-010-012-RIZ004-006-007-MAZ004-011-015-282000-
SOUTHERN NEW ENGLAND
 IN CT

CITY           SKY/WX    TMP DP  RH WIND       PRES   REMARKS
BRADLEY INTL   LGT SNOW  33  29  85 N13       29.79R FOG     WCI  24
HARTFORD       SNOW      32  30  92 N8        29.80R VSB 1/2 WCI  25
DANBURY        LGT SNOW  30  22  72 NW10      29.83S WCI  21
WTRBRY/OXFORD  CLOUDY    28  19  69 NW13      29.80R VSB 1   WCI  18
BRIDGEPORT     LGT SNOW  33  28  81 N14G21    29.81S WCI  23
MERIDEN        SNOW      32  29  88 NW10      29.80R VSB 1/2 WCI  24
NEW HAVEN      LGT SNOW  32  28  85 NW15G23   29.80R VSB 3/4 WCI  22
CHESTER        SNOW      32  32 100 N14       29.76S VSB 1/2 WCI  22
GROTON         LGT RAIN  37  34  89 N13       29.75R WCI  29
WILLIMANTIC    LGT SNOW  35  30  82 N9        29.77R WCI  28

 IN RI

CITY           SKY/WX    TMP DP  RH WIND       PRES   REMARKS
PROVIDENCE     LGT SNOW  36  32  85 N13       29.75R FOG     WCI  27
BLOCK ISLAND   CLOUDY    36  32  87 N9G16     29.73R WCI  29
WESTERLY       LGT RAIN  37  33  85 N8        29.75R FOG     WCI  31

 IN MA

CITY           SKY/WX    TMP DP  RH WIND       PRES   REMARKS
BOSTON         LGT SNOW  33  31  92 N13       29.77R VSB 3/4 WCI  24
WORCESTER      LGT SNOW  32  28  85 N13       29.73S VSB 1   WCI  22
WESTFIELD      LGT SNOW  33  29  85 NW9       29.79S FOG     WCI  25
PROVINCETOWN   CLOUDY    34  30  86 N22G33    29.71F WCI  22
NANTUCKET      FLURRIES  36  33  89 N22G30    29.63F WCI  25
$$

ANZ330-335-338-340-345-350-353-355-282000-
COASTAL MARINE OBSERVATIONS


STATION/POSITION TIME  SKY/WX   TEMP    WIND        PRES    VSBY  WAVE
                                AIR SEA DIR/SP/G                  HT/PER
                 (UTC)          (F)     (DEG/KT/KT) (MB)    (MI)  (FT/S)
NY HARB ENTRANCE 1850            35 38  350/ 19/ 21 1009.5          3/11
4S FIRE IS       1803               36                N/A           4/10
20S FIRE ISLAND  1750               38              1009.5          5/11
23SW MTP         1850                                 N/A           6/11
HUDSON CANYON    NOT AVBL
EXECUTION ROCKS  NOT AVBL
WESTERN LI SOUND NOT AVBL
CENTRAL LI SOUND NOT AVBL
EASTERN LI SOUND NOT AVBL
ROBBINS REEF     1800            38     340/ 13/ 17 1008.9
$$


>>>>>>>>>>>>>>>>>>>>>>>>>>>> KEY <<<<<<<<<<<<<<<<<<<<<<<<<<<
>                                                          <
>     SKY/WX - SKY CONDITION/PRESENT WEATHER               <
>     TMP    - TEMPERATURE IN FAHRENHEIT                   <
>     DP     - DEWPOINT IN FAHRENHEIT                      <
>     RH     - RELATIVE HUMIDITY IN PERCENT                <
>     WIND   - DIRECTION AND SPEED IN MPH                  <
>     PRES   - MEAN SEA LEVEL PRESSURE IN INCHES OF HG     <
>     WCI    - WIND CHILL INDEX                            <
>     VSB    - VISIBILITY IN MILES                         <
>     HX     - HEAT INDEX                                  <
>     TC     - TEMPERATURE IN CELSIUS                      <
>     VRB    - VARIABLE WIND DIRECTION                     <
>                                                          <
>>>>>>>>>>>>>>>>>>>>>>>>>>>> KEY <<<<<<<<<<<<<<<<<<<<<<<<<<<




USA.gov is the U.S. government's official web portal to all federal, state and local government web resources and services.